Location: Clyde
(45.1830°S, 169.3170°E)
Time: 16:34:25
(UTC+12:00)

Cosmos 2322 - Pass Details

Date: 14 May 2021
Orbit: 842 x 853 km, 71.0° (Epoch: 16 June)

Event Time Altitude Azimuth Distance (km) Brightness Sun altitude
Rises 18:21:02 0° 325° (NW) 3,413 7.8 -10.1°
Reaches altitude 10° 18:23:30 10° 321° (NW) 2,486 7.0 -10.5°
Maximum altitude 18:29:09 61° 241° (WSW) 978 4.3 -11.4°
Drops below altitude 10° 18:34:54 10° 160° (SSE) 2,519 5.8 -12.4°
Enters shadow 18:37:11 - 156° (SSE) 3,372 6.5 -12.8°
